| time (UTC) | temp C | wind direction | speed KPH | gust KPH | rain 1hr cm | rain 24hr cm | rain mn cm | humidity % | barometer mb |
| 20260504050600 | 16 | 266 | 6.4 | 16.1 | 0.00 | 0.00 | 0.00 | 47 | 991.7 |
| 20260504045536 | 16 | 257 | 6.4 | 17.7 | 0.00 | 0.00 | 0.00 | 47 | 991.9 |
| 20260504044530 | 16 | 267 | 8.0 | 16.1 | 0.00 | 0.00 | 0.00 | 48 | 992.4 |
| 20260504043545 | 16 | 272 | 9.7 | 22.5 | 0.00 | 0.00 | 0.00 | 46 | 992.5 |
| 20260504042520 | 16 | 310 | 8.0 | 16.1 | 0.00 | 0.00 | 0.00 | 44 | 992.6 |
| 20260504041534 | 17 | 253 | 9.7 | 20.9 | 0.00 | 0.00 | 0.00 | 41 | 991.6 |
| 20260504040529 | 17 | 233 | 8.0 | 25.7 | 0.00 | 0.00 | 0.00 | 41 | 991.3 |
| 20260504035524 | 17 | 230 | 6.4 | 16.1 | 0.00 | 0.00 | 0.00 | 40 | 991.4 |
| 20260504034519 | 17 | 225 | 6.4 | 25.7 | 0.00 | 0.00 | 0.00 | 40 | 991.7 |
| 20260504033535 | 17 | 228 | 6.4 | 17.7 | 0.00 | 0.00 | 0.00 | 39 | 992.2 |
| 20260504032529 | 17 | 221 | 8.0 | 20.9 | 0.00 | 0.00 | 0.00 | 40 | 992.4 |
| 20260504031525 | 17 | 248 | 6.4 | 16.1 | 0.00 | 0.00 | 0.00 | 40 | 992.6 |
| 20260504030521 | 17 | 244 | 8.0 | 22.5 | 0.00 | 0.00 | 0.00 | 40 | 993.0 |
| 20260504025516 | 17 | 223 | 6.4 | 14.5 | 0.00 | 0.00 | 0.00 | 40 | 993.4 |
| 20260504024552 | 17 | 230 | 4.8 | 12.9 | 0.00 | 0.00 | 0.00 | 40 | 993.6 |
| 20260504023527 | 17 | 216 | 6.4 | 14.5 | 0.00 | 0.00 | 0.00 | 40 | 993.9 |
| 20260504022542 | 17 | 223 | 4.8 | 12.9 | 0.00 | 0.00 | 0.00 | 40 | 994.0 |
| 20260504021517 | 17 | 227 | 6.4 | 12.9 | 0.00 | 0.00 | 0.00 | 40 | 994.2 |
| 20260504020532 | 17 | 239 | 4.8 | 16.1 | 0.00 | 0.00 | 0.00 | 40 | 994.7 |
| 20260504015527 | 17 | 254 | 4.8 | 12.9 | 0.00 | 0.00 | 0.00 | 40 | 994.9 |
| 20260504014521 | 18 | 252 | 4.8 | 11.3 | 0.00 | 0.00 | 0.00 | 40 | 995.2 |
| 20260504013536 | 18 | 232 | 4.8 | 12.9 | 0.00 | 0.00 | 0.00 | 40 | 995.5 |
| 20260504012550 | 18 | 252 | 3.2 | 6.4 | 0.00 | 0.00 | 0.00 | 39 | 995.7 |
| 20260504011605 | 18 | 246 | 4.8 | 11.3 | 0.00 | 0.00 | 0.00 | 39 | 995.9 |
| 20260504010518 | 18 | 243 | 3.2 | 6.4 | 0.00 | 0.00 | 0.00 | 38 | 996.1 |
| 20260504005534 | 18 | 250 | 4.8 | 9.7 | 0.00 | 0.00 | 0.00 | 37 | 996.5 |
| 20260504004529 | 19 | 251 | 6.4 | 14.5 | 0.00 | 0.00 | 0.00 | 36 | 996.6 |
| 20260504003544 | 19 | 251 | 6.4 | 12.9 | 0.00 | 0.00 | 0.00 | 36 | 996.8 |
| 20260504002521 | 20 | 251 | 6.4 | 16.1 | 0.00 | 0.00 | 0.00 | 35 | 997.0 |
| 20260504001536 | 20 | 248 | 6.4 | 16.1 | 0.00 | 0.00 | 0.00 | 35 | 997.2 |
| 20260504000531 | 20 | 257 | 6.4 | 14.5 | 0.00 | 0.00 | 0.00 | 35 | 997.4 |
| 20260503235525 | 20 | 269 | 8.0 | 12.9 | 0.00 | 0.00 | 0.00 | 34 | 997.6 |
| 20260503234539 | 20 | 267 | 8.0 | 24.1 | 0.00 | 0.00 | 0.00 | 34 | 997.7 |
| 20260503233536 | 20 | 267 | 8.0 | 17.7 | 0.00 | 0.00 | 0.00 | 34 | 998.0 |
| 20260503232530 | 20 | 264 | 6.4 | 20.9 | 0.00 | 0.00 | 0.00 | 35 | 998.3 |
| 20260503231525 | 20 | 268 | 6.4 | 16.1 | 0.00 | 0.00 | 0.00 | 35 | 998.6 |
| 20260503230520 | 20 | 253 | 9.7 | 17.7 | 0.00 | 0.00 | 0.00 | 34 | 998.9 |
| 20260503225515 | 20 | 289 | 8.0 | 16.1 | 0.00 | 0.00 | 0.00 | 34 | 999.1 |
| 20260503224530 | 20 | 282 | 11.3 | 30.6 | 0.00 | 0.00 | 0.00 | 33 | 999.4 |
| 20260503223525 | 20 | 274 | 9.7 | 20.9 | 0.00 | 0.00 | 0.00 | 33 | 999.4 |
| 20260503222520 | 20 | 280 | 11.3 | 22.5 | 0.00 | 0.00 | 0.00 | 33 | 999.6 |
| 20260503221555 | 20 | 281 | 9.7 | 22.5 | 0.00 | 0.00 | 0.00 | 34 | 999.9 |
| 20260503220529 | 20 | 282 | 6.4 | 16.1 | 0.00 | 0.00 | 0.00 | 35 | 1000.2 |
| 20260503215523 | 21 | 272 | 9.7 | 17.7 | 0.00 | 0.00 | 0.00 | 35 | 1000.4 |
| 20260503214518 | 20 | 306 | 9.7 | 17.7 | 0.00 | 0.00 | 0.00 | 35 | 1000.6 |
| 20260503213533 | 20 | 279 | 6.4 | 22.5 | 0.00 | 0.00 | 0.00 | 35 | 1000.9 |
| 20260503212548 | 19 | 263 | 8.0 | 20.9 | 0.00 | 0.00 | 0.00 | 36 | 1001.1 |
| 20260503211524 | 19 | 274 | 9.7 | 24.1 | 0.00 | 0.00 | 0.00 | 36 | 1001.5 |
| 20260503210519 | 20 | 289 | 9.7 | 17.7 | 0.00 | 0.00 | 0.00 | 36 | 1001.8 |
| 20260503205534 | 20 | 273 | 9.7 | 20.9 | 0.00 | 0.00 | 0.00 | 36 | 1001.9 |
| 20260503204529 | 19 | 314 | 6.4 | 16.1 | 0.00 | 0.00 | 0.00 | 37 | 1002.2 |
| 20260503203544 | 20 | 299 | 6.4 | 14.5 | 0.00 | 0.00 | 0.00 | 35 | 1002.3 |
| 20260503202518 | 18 | 267 | 6.4 | 14.5 | 0.00 | 0.00 | 0.00 | 33 | 1002.6 |
| 20260503201533 | 19 | 287 | 9.7 | 20.9 | 0.00 | 0.00 | 0.00 | 32 | 1002.8 |
| 20260503200528 | 20 | 241 | 6.4 | 12.9 | 0.00 | 0.00 | 0.00 | 33 | 1002.9 |
| 20260503195522 | 18 | 270 | 11.3 | 24.1 | 0.00 | 0.00 | 0.00 | 32 | 1003.2 |
| 20260503194538 | 18 | 285 | 8.0 | 22.5 | 0.00 | 0.00 | 0.00 | 35 | 1003.3 |
| 20260503193532 | 18 | 291 | 8.0 | 20.9 | 0.00 | 0.00 | 0.00 | 34 | 1003.6 |
| 20260503192526 | 18 | 261 | 9.7 | 25.7 | 0.00 | 0.00 | 0.00 | 36 | 1003.9 |
| 20260503191521 | 18 | 277 | 9.7 | 20.9 | 0.00 | 0.00 | 0.00 | 36 | 1004.2 |
| 20260503190517 | 17 | 285 | 8.0 | 22.5 | 0.00 | 0.00 | 0.00 | 37 | 1004.5 |
| 20260503185532 | 17 | 280 | 9.7 | 22.5 | 0.00 | 0.00 | 0.00 | 37 | 1004.7 |
| 20260503184527 | 17 | 273 | 9.7 | 17.7 | 0.00 | 0.00 | 0.00 | 37 | 1005.0 |
| 20260503183542 | 17 | 261 | 8.0 | 16.1 | 0.00 | 0.00 | 0.00 | 38 | 1005.2 |
| 20260503182516 | 16 | 290 | 9.7 | 20.9 | 0.00 | 0.00 | 0.00 | 39 | 1005.4 |
| 20260503181530 | 16 | 300 | 8.0 | 20.9 | 0.00 | 0.00 | 0.00 | 39 | 1005.6 |
| 20260503180525 | 16 | 265 | 9.7 | 25.7 | 0.00 | 0.00 | 0.00 | 39 | 1005.8 |
| 20260503175519 | 16 | 269 | 9.7 | 20.9 | 0.00 | 0.00 | 0.00 | 39 | 1006.0 |
| 20260503174534 | 16 | 299 | 8.0 | 16.1 | 0.00 | 0.00 | 0.00 | 40 | 1006.2 |
| 20260503173528 | 15 | 293 | 8.0 | 17.7 | 0.00 | 0.00 | 0.00 | 41 | 1006.3 |
| 20260503172542 | 15 | 290 | 6.4 | 16.1 | 0.00 | 0.00 | 0.00 | 40 | 1006.5 |
| 20260503171518 | 15 | 292 | 9.7 | 22.5 | 0.00 | 0.00 | 0.00 | 40 | 1006.7 |
| 20260503170553 | 15 | 277 | 8.0 | 17.7 | 0.00 | 0.00 | 0.00 | 40 | 1006.9 |
| 20260503150533 | 11 | 315 | 3.2 | 9.7 | 0.00 | 0.00 | 0.00 | 49 | 1008.0 |
| 20260503130531 | 6 | 312 | 4.8 | 11.3 | 0.00 | 0.00 | 0.00 | 66 | 1008.1 |
| 20260503110530 | 2 | 277 | 0.0 | 1.6 | 0.00 | 0.00 | 0.00 | 81 | 1007.2 |
| 20260503081522 | 6 | 341 | 6.4 | 12.9 | 0.00 | 0.00 | 0.00 | 85 | 1006.6 |
| 20260503080517 | 6 | 330 | 4.8 | 11.3 | 0.00 | 0.00 | 0.00 | 88 | 1006.4 |
| 20260503072515 | 5 | 276 | 0.0 | 1.6 | 0.00 | 0.00 | 0.00 | 94 | 1006.4 |
| 20260503071531 | 4 | 330 | 0.0 | 1.6 | 0.00 | 0.00 | 0.00 | 95 | 1006.3 |
| 20260503070545 | 4 | 262 | 0.0 | 1.6 | 0.00 | 0.00 | 0.00 | 95 | 1006.2 |
| 20260503054525 | 4 | 256 | 0.0 | 1.6 | 0.00 | 0.00 | 0.00 | 93 | 1006.3 |
| 20260503053540 | 5 | 0.0 | 0.0 | 0.00 | 0.00 | 0.00 | 92 | 1006.1 | |
| 20260503052515 | 5 | 0.0 | 0.0 | 0.00 | 0.00 | 0.00 | 91 | 1006.1 |